SBIRS GEO-4 (USA 273)

Last updated on Fri Dec 19 2025 00:02:52 GMT+0000 (Coordinated Universal Time)

1 41937U 17004A 25352.27279576 .00000147 00000+0 00000+0 0 9998 2 41937 1.9156 37.1338 0001996 230.9992 298.1133 1.00272796 32783
UTC large
Height (km)
Speed (km/s)
/
Latitude / Longitude
Inclination (degrees)
Orbital Period (minutes)
Azimuth
Elevation
Range (km)
Doppler Factor

Next 0 passes for location: London (51.5072 / 0.1276)

Sorry there are no passes over London.